Faribault, MN

8:13 PM CST on December 10, 2016 (GMT -0600)
Faribault Municipal

Weather History for KFBL - April, 2013

Change the Weather History Date:

Friday, April 19, 2013

  Actual Average Record
Temperature  
Mean Temperature 32 °F -  
Max Temperature 35 °F 60 °F 91 °F (1985)
Min Temperature 28 °F 39 °F 18 °F (1988)
Degree Days  
Heating Degree Days 34    
Moisture  
Dew Point 27 °F    
Average Humidity 82    
Maximum Humidity 100    
Minimum Humidity 60    
Precipitation  
Precipitation 0.00 in - - ()
Sea Level Pressure  
Sea Level Pressure 29.71 in    
Wind  
Wind Speed 15 mph (WNW)    
Max Wind Speed 23 mph    
Max Gust Speed 30 mph    
Visibility 7 miles    
Events      
Averages and records for this station are not official NWS values.
T = Trace of Precipitation, MM = Missing Value Source: NWS Daily Summary

Daily Weather History Graph

Daily Weather History Graph

Search for Another Location

Airport or City:

Trip Planner

Search our weather history database for the weather conditions in past years. The results will help you decide how hot, cold, wet, or windy it might be!

Date:

Astronomy

Apr. 19, 2013 Rise Set
Actual Time 6:22 AM CDT 8:02 PM CDT
Civil Twilight 5:51 AM CDT 8:33 PM CDT
Nautical Twilight 5:14 AM CDT 9:11 PM CDT
Astronomical Twilight 4:34 AM CDT 9:51 PM CDT
Moon 1:34 PM CDT (4/19) 2:52 AM CDT (4/19)
Length of Visible Light 14h 41m
Length of Day
13h 40m
First Quarter, 62% of the Moon is Illuminated
Apr 19
First Quarter
Apr 25
Full
May 2
Last Quarter
May 9
New
May 17
First Quarter

Hourly Weather History & Observations

Time (CDT) Temp. Windchill Dew Point Humidity Pressure Visibility Wind Dir Wind Speed Gust Speed Precip Events Conditions
12:01 AM 30.2 °F 18.5 °F 30.2 °F 100% 29.51 in 2.5 mi WNW 17.3 mph 24.2 mph N/A   Overcast
12:21 AM 30.2 °F 19.3 °F 30.2 °F 100% 29.50 in 2.5 mi WNW 15.0 mph 21.9 mph N/A   Overcast
12:41 AM 30.2 °F 18.9 °F 30.2 °F 100% 29.50 in 2.0 mi WNW 16.1 mph 21.9 mph N/A   Overcast
1:41 AM 30.2 °F 19.3 °F 30.2 °F 100% 29.50 in 1.8 mi WNW 15.0 mph 19.6 mph N/A   Overcast
2:01 AM 30.2 °F 19.3 °F 30.2 °F 100% 29.50 in 1.5 mi WNW 15.0 mph 23.0 mph N/A   Overcast
2:21 AM 30.2 °F 18.9 °F 30.2 °F 100% 29.49 in 3.0 mi WNW 16.1 mph 20.7 mph N/A   Overcast
3:01 AM 30.2 °F 19.3 °F 30.2 °F 100% 29.49 in 4.0 mi WNW 15.0 mph 21.9 mph N/A   Overcast
3:21 AM 30.2 °F 19.3 °F 30.2 °F 100% 29.50 in 2.5 mi WNW 15.0 mph 21.9 mph N/A   Overcast
3:41 AM 30.2 °F 20.2 °F 30.2 °F 100% 29.50 in 2.5 mi WNW 12.7 mph 23.0 mph N/A   Overcast
4:21 AM 30.2 °F 18.5 °F 30.2 °F 100% 29.51 in 2.5 mi WNW 17.3 mph 21.9 mph N/A   Overcast
5:01 AM 30.2 °F 18.5 °F 30.2 °F 100% 29.52 in 4.0 mi WNW 17.3 mph 25.3 mph N/A   Overcast
5:21 AM 30.2 °F 18.9 °F 28.4 °F 93% 29.52 in 7.0 mi WNW 16.1 mph 23.0 mph N/A   Overcast
5:41 AM 30.2 °F 19.8 °F 28.4 °F 93% 29.53 in 7.0 mi WNW 13.8 mph 20.7 mph N/A   Overcast
6:21 AM 28.4 °F 17.0 °F 28.4 °F 100% 29.54 in 5.0 mi NW 15.0 mph 19.6 mph N/A   Overcast
6:41 AM 28.4 °F 16.6 °F 28.4 °F 100% 29.55 in 7.0 mi WNW 16.1 mph 23.0 mph N/A   Overcast
7:01 AM 28.4 °F 16.2 °F 28.4 °F 100% 29.56 in 10.0 mi WNW 17.3 mph 23.0 mph N/A   Overcast
7:21 AM 28.4 °F 16.2 °F 28.4 °F 100% 29.56 in 10.0 mi WNW 17.3 mph 25.3 mph N/A   Overcast
7:41 AM 30.2 °F 20.8 °F 28.4 °F 93% 29.57 in 10.0 mi WNW 11.5 mph 21.9 mph N/A   Overcast
8:01 AM 28.4 °F 17.5 °F 28.4 °F 100% 29.58 in 10.0 mi WNW 13.8 mph 19.6 mph N/A   Overcast
9:01 AM 30.2 °F 19.8 °F 28.4 °F 93% 29.59 in 5.0 mi NW 13.8 mph - N/A   Overcast
9:41 AM 30.2 °F 19.3 °F 28.4 °F 93% 29.61 in 1.5 mi WNW 15.0 mph 26.5 mph N/A   Overcast
10:01 AM 30.2 °F 18.9 °F 28.4 °F 93% 29.62 in 2.0 mi WNW 16.1 mph 25.3 mph N/A   Overcast
10:21 AM 30.2 °F 18.5 °F 28.4 °F 93% 29.62 in 4.0 mi WNW 17.3 mph 23.0 mph N/A   Overcast
10:41 AM 30.2 °F 18.1 °F 28.4 °F 93% 29.63 in 3.0 mi NW 18.4 mph 23.0 mph N/A   Overcast
11:01 AM 30.2 °F 19.3 °F 28.4 °F 93% 29.64 in 5.0 mi WNW 15.0 mph 21.9 mph N/A   Overcast
11:21 AM 30.2 °F 18.5 °F 28.4 °F 93% 29.65 in 4.0 mi NW 17.3 mph 21.9 mph N/A   Overcast
11:41 AM 32.0 °F 21.2 °F 26.6 °F 80% 29.66 in 7.0 mi NW 16.1 mph 28.8 mph N/A   Overcast
12:01 PM 32.0 °F 20.5 °F 28.4 °F 87% 29.67 in 7.0 mi NW 18.4 mph 27.6 mph N/A   Overcast
12:21 PM 32.0 °F 21.2 °F 26.6 °F 80% 29.68 in 3.0 mi NW 16.1 mph 29.9 mph N/A   Overcast
12:41 PM 32.0 °F 20.1 °F 26.6 °F 80% 29.69 in 4.0 mi WNW 19.6 mph 26.5 mph N/A   Overcast
1:01 PM 33.8 °F 21.6 °F 26.6 °F 75% 29.70 in 7.0 mi WNW 23.0 mph 28.8 mph N/A   Overcast
1:21 PM 33.8 °F 24.8 °F 26.6 °F 75% 29.71 in 10.0 mi WNW 12.7 mph 24.2 mph N/A   Overcast
1:41 PM 33.8 °F 23.2 °F 24.8 °F 70% 29.71 in 10.0 mi NW 17.3 mph 24.2 mph N/A   Overcast
2:01 PM 35.6 °F 26.6 °F 26.6 °F 70% 29.72 in 10.0 mi WNW 13.8 mph 28.8 mph N/A   Overcast
2:21 PM 33.8 °F 23.5 °F 26.6 °F 75% 29.73 in 10.0 mi WNW 16.1 mph 24.2 mph N/A   Overcast
2:41 PM 35.6 °F 25.9 °F 24.8 °F 65% 29.74 in 10.0 mi WNW 16.1 mph 25.3 mph N/A   Overcast
3:01 PM 35.6 °F 25.9 °F 23.0 °F 60% 29.75 in 10.0 mi NW 16.1 mph 29.9 mph N/A   Overcast
3:21 PM 35.6 °F 24.2 °F 24.8 °F 65% 29.75 in 10.0 mi NW 21.9 mph 26.5 mph N/A   Overcast
3:41 PM 35.6 °F 24.5 °F 24.8 °F 65% 29.76 in 10.0 mi WNW 20.7 mph 28.8 mph N/A   Overcast
4:01 PM 35.6 °F 25.9 °F 26.6 °F 70% 29.77 in 10.0 mi WNW 16.1 mph 26.5 mph N/A   Mostly Cloudy
4:21 PM 35.6 °F 26.2 °F 26.6 °F 70% 29.78 in 10.0 mi NW 15.0 mph 23.0 mph N/A   Overcast
4:41 PM 35.6 °F 24.5 °F 24.8 °F 65% 29.79 in 10.0 mi WNW 20.7 mph 25.3 mph N/A   Overcast
5:01 PM 35.6 °F 25.5 °F 23.0 °F 60% 29.80 in 10.0 mi WNW 17.3 mph 24.2 mph N/A   Mostly Cloudy
5:21 PM 35.6 °F 25.5 °F 24.8 °F 65% 29.82 in 10.0 mi NW 17.3 mph 23.0 mph N/A   Mostly Cloudy
5:41 PM 35.6 °F 28.0 °F 24.8 °F 65% 29.83 in 10.0 mi WNW 10.4 mph 19.6 mph N/A   Mostly Cloudy
6:01 PM 35.6 °F 26.6 °F 24.8 °F 65% 29.84 in 10.0 mi NW 13.8 mph 21.9 mph N/A   Mostly Cloudy
6:21 PM 35.6 °F 25.9 °F 24.8 °F 65% 29.85 in 10.0 mi NW 16.1 mph 20.7 mph N/A   Mostly Cloudy
6:41 PM 35.6 °F 27.1 °F 24.8 °F 65% 29.86 in 10.0 mi WNW 12.7 mph 23.0 mph N/A   Mostly Cloudy
7:01 PM 35.6 °F 29.2 °F 24.8 °F 65% 29.87 in 10.0 mi NW 8.1 mph 19.6 mph N/A   Scattered Clouds
7:21 PM 35.6 °F 28.6 °F 23.0 °F 60% 29.88 in 10.0 mi WNW 9.2 mph 17.3 mph N/A   Mostly Cloudy
7:41 PM 33.8 °F 25.8 °F 24.8 °F 70% 29.89 in 10.0 mi West 10.4 mph 17.3 mph N/A   Overcast
8:01 PM 33.8 °F 24.8 °F 26.6 °F 75% 29.89 in 10.0 mi West 12.7 mph - N/A   Overcast
8:21 PM 33.8 °F 25.8 °F 26.6 °F 75% 29.90 in 10.0 mi West 10.4 mph - N/A   Overcast
8:41 PM 32.0 °F 23.6 °F 26.6 °F 80% 29.92 in 10.0 mi West 10.4 mph - N/A   Overcast
9:01 PM 32.0 °F 22.5 °F 24.8 °F 75% 29.93 in 10.0 mi West 12.7 mph - N/A   Mostly Cloudy
9:21 PM 30.2 °F 21.3 °F 24.8 °F 80% 29.94 in 10.0 mi West 10.4 mph - N/A   Scattered Clouds
9:41 PM 30.2 °F 21.9 °F 24.8 °F 80% 29.95 in 10.0 mi West 9.2 mph - N/A   Clear
10:01 PM 30.2 °F 21.3 °F 23.0 °F 75% 29.96 in 10.0 mi West 10.4 mph - N/A   Clear
10:21 PM 30.2 °F 21.3 °F 23.0 °F 75% 29.96 in 10.0 mi West 10.4 mph - N/A   Clear
10:41 PM 30.2 °F 21.3 °F 21.2 °F 69% 29.97 in 10.0 mi West 10.4 mph - N/A   Clear
11:01 PM 28.4 °F 19.7 °F 21.2 °F 74% 29.97 in 10.0 mi WNW 9.2 mph - N/A   Clear
11:21 PM 28.4 °F 19.1 °F 21.2 °F 74% 29.98 in 10.0 mi WNW 10.4 mph - N/A   Clear